South St. Paul, MN

1:33 PM CDT on September 23, 2017 (GMT -0500)
South Saint Paul Municipal-Fleming

Weather History for KSGS - June, 2013

Change the Weather History Date:

Wednesday, June 5, 2013

  Actual Average (KSTP) Record (KSTP)
Temperature  
Mean Temperature 58 °F -  
Max Temperature 60 °F 72 °F 90 °F (1999)
Min Temperature 56 °F 53 °F 42 °F (2002)
Degree Days  
Heating Degree Days 7    
Growing Degree Days 8 (Base 50)    
Moisture  
Dew Point 55 °F    
Average Humidity 88    
Maximum Humidity 95    
Minimum Humidity 78    
Precipitation  
Precipitation 0.06 in - - ()
Sea Level Pressure  
Sea Level Pressure 29.99 in    
Wind  
Wind Speed 4 mph (ESE)    
Max Wind Speed 8 mph    
Max Gust Speed -    
Visibility 6 miles    
Events Rain , Thunderstorm    
Averages and records for this station are not official NWS values.
T = Trace of Precipitation, MM = Missing Value Source: NWS Daily Summary

Daily Weather History Graph

Daily Weather History Graph

Search for Another Location

Airport or City:

Trip Planner

Search our weather history database for the weather conditions in past years. The results will help you decide how hot, cold, wet, or windy it might be!

Date:

Astronomy

Jun. 05, 2013 Rise Set
Actual Time 5:27 AM CDT 8:54 PM CDT
Civil Twilight 4:50 AM CDT 9:31 PM CDT
Nautical Twilight 4:02 AM CDT 10:19 PM CDT
Astronomical Twilight 3:01 AM CDT 11:21 PM CDT
Moon 3:38 AM CDT (6/5) 6:16 PM CDT (6/5)
Length of Visible Light 16h 40m
Length of Day
15h 27m
Waning Crescent, 8% of the Moon is Illuminated
Jun 5
Waning Crescent
Jun 8
New
Jun 16
First Quarter
Jun 23
Full
Jun 29
Last Quarter

Hourly Weather History & Observations

Time (CDT) Temp. Dew Point Humidity Pressure Visibility Wind Dir Wind Speed Gust Speed Precip Events Conditions
12:14 AM 59.0 °F 52.2 °F 78% 30.06 in 10.0 mi ESE 4.6 mph - N/A   Overcast
12:34 AM 59.0 °F 52.0 °F 78% 30.06 in 10.0 mi East 8.1 mph - N/A   Overcast
12:54 AM 58.5 °F 51.8 °F 79% 30.06 in 10.0 mi ESE 4.6 mph - N/A   Overcast
1:14 AM 58.3 °F 51.8 °F 79% 30.05 in 10.0 mi ESE 6.9 mph - N/A   Overcast
1:34 AM 58.1 °F 51.8 °F 80% 30.05 in 10.0 mi East 6.9 mph - N/A   Overcast
1:54 AM 58.1 °F 51.8 °F 80% 30.05 in 10.0 mi SE 5.8 mph - N/A   Overcast
2:14 AM 58.1 °F 51.8 °F 80% 30.05 in 10.0 mi SE 6.9 mph - N/A   Overcast
2:34 AM 58.1 °F 51.8 °F 80% 30.05 in 10.0 mi SSE 3.5 mph - N/A   Overcast
2:54 AM 58.1 °F 52.2 °F 81% 30.05 in 7.0 mi ESE 3.5 mph - N/A   Overcast
3:14 AM 57.4 °F 53.1 °F 85% 30.05 in 3.0 mi SE 3.5 mph - N/A Thunderstorm Overcast
3:34 AM 56.8 °F 53.6 °F 89% 30.04 in 3.0 mi ESE 3.5 mph - N/A   Overcast
3:54 AM 56.7 °F 53.8 °F 90% 30.03 in 3.0 mi SE 3.5 mph - N/A   Overcast
4:14 AM 56.7 °F 53.8 °F 90% 30.03 in 3.0 mi SE 3.5 mph - N/A Thunderstorm Overcast
4:34 AM 56.7 °F 54.0 °F 91% 30.02 in 2.0 mi Calm Calm - 0.01 in   Light Drizzle
4:54 AM 56.3 °F 54.1 °F 92% 30.00 in 4.0 mi SSE 4.6 mph - 0.01 in   Overcast
5:14 AM 56.5 °F 54.7 °F 94% 30.01 in 3.0 mi SE 3.5 mph - N/A   Overcast
5:34 AM 56.5 °F 54.7 °F 94% 30.02 in 4.0 mi SE 3.5 mph - N/A   Overcast
5:54 AM 56.7 °F 54.9 °F 94% 30.02 in 5.0 mi SSE 4.6 mph - N/A   Overcast
6:14 AM 56.8 °F 54.7 °F 92% 30.02 in 4.0 mi Calm Calm - N/A   Overcast
6:34 AM 56.8 °F 54.7 °F 92% 30.01 in 3.0 mi SE 4.6 mph - N/A   Overcast
6:54 AM 57.2 °F 54.7 °F 91% 30.01 in 3.0 mi SSE 3.5 mph - N/A   Overcast
7:14 AM 57.2 °F 54.5 °F 91% 30.00 in 1.8 mi SSE 3.5 mph - N/A   Overcast
7:34 AM 57.2 °F 54.9 °F 92% 30.00 in 1.2 mi SSE 3.5 mph - N/A   Overcast
7:54 AM 56.7 °F 54.9 °F 94% 30.01 in 1.2 mi Calm Calm - 0.01 in   Overcast
8:14 AM 56.5 °F 54.9 °F 94% 30.01 in 1.2 mi SE 3.5 mph - N/A   Overcast
8:34 AM 56.7 °F 55.0 °F 94% 30.01 in 1.0 mi Calm Calm - 0.01 in   Overcast
8:54 AM 56.7 °F 55.0 °F 94% 30.01 in 1.2 mi SSE 3.5 mph - 0.01 in   Overcast
9:14 AM 56.7 °F 55.0 °F 94% 30.01 in 1.5 mi SE 5.8 mph - N/A Rain Light Rain
9:34 AM 56.5 °F 54.9 °F 94% 30.02 in 2.5 mi SSE 4.6 mph - 0.01 in Rain Light Rain
9:54 AM 56.7 °F 55.0 °F 94% 30.01 in 2.0 mi SE 3.5 mph - 0.02 in Rain Light Rain
10:14 AM 56.7 °F 55.0 °F 94% 30.00 in 2.5 mi ESE 6.9 mph - N/A   Overcast
10:34 AM 56.7 °F 55.0 °F 94% 29.98 in 5.0 mi ESE 6.9 mph - N/A   Overcast
10:54 AM 56.8 °F 55.4 °F 95% 29.98 in 5.0 mi SE 5.8 mph - N/A   Overcast
11:14 AM 56.8 °F 55.4 °F 95% 29.99 in 5.0 mi SSE 4.6 mph - N/A   Overcast
11:34 AM 57.0 °F 55.4 °F 94% 29.99 in 5.0 mi SSE 4.6 mph - N/A   Overcast
11:54 AM 57.2 °F 55.4 °F 94% 30.00 in 7.0 mi SE 3.5 mph - N/A Rain Light Rain
12:14 PM 57.6 °F 55.9 °F 94% 30.00 in 5.0 mi SSE 3.5 mph - N/A Rain Light Rain
12:34 PM 57.7 °F 56.3 °F 95% 29.99 in 7.0 mi SE 3.5 mph - 0.01 in Rain Light Rain
12:54 PM 57.9 °F 56.3 °F 94% 29.99 in 7.0 mi SSE 6.9 mph - 0.01 in   Overcast
1:14 PM 58.1 °F 56.3 °F 94% 29.99 in 7.0 mi SSE 3.5 mph - N/A   Overcast
1:34 PM 58.5 °F 56.5 °F 93% 29.98 in 7.0 mi ESE 3.5 mph - N/A   Overcast
1:54 PM 59.0 °F 55.9 °F 90% 29.97 in 5.0 mi SE 3.5 mph - N/A   Overcast
2:14 PM 59.4 °F 55.8 °F 88% 29.97 in 5.0 mi Calm Calm - N/A   Overcast
2:34 PM 59.9 °F 55.9 °F 87% 29.97 in 5.0 mi Calm Calm - N/A   Overcast
2:54 PM 59.5 °F 55.6 °F 87% 29.97 in 4.0 mi ESE 3.5 mph - N/A   Overcast
3:14 PM 59.4 °F 55.8 °F 88% 29.97 in 2.5 mi SE 3.5 mph - N/A   Overcast
3:34 PM 59.2 °F 56.3 °F 90% 29.96 in 1.8 mi SE 3.5 mph - N/A   Overcast
3:54 PM 59.5 °F 57.0 °F 91% 29.95 in 2.5 mi ENE 3.5 mph - N/A   Overcast
4:14 PM 59.9 °F 56.7 °F 89% 29.95 in 3.0 mi Calm Calm - N/A   Overcast
4:34 PM 59.9 °F 56.5 °F 88% 29.95 in 4.0 mi Calm Calm - N/A   Overcast
4:54 PM 59.9 °F 56.3 °F 88% 29.96 in 4.0 mi NE 3.5 mph - N/A   Overcast
5:14 PM 60.1 °F 56.3 °F 87% 29.96 in 4.0 mi NNE 4.6 mph - N/A   Overcast
5:34 PM 60.1 °F 56.3 °F 87% 29.96 in 5.0 mi NNE 5.8 mph - N/A   Overcast
5:54 PM 59.5 °F 56.3 °F 89% 29.96 in 2.5 mi NE 3.5 mph - N/A Rain Light Rain
6:14 PM 59.9 °F 56.3 °F 88% 29.96 in 4.0 mi NE 3.5 mph - N/A   Mostly Cloudy
6:34 PM 59.9 °F 56.3 °F 88% 29.95 in 4.0 mi NE 4.6 mph - N/A   Mostly Cloudy
6:54 PM 59.2 °F 55.8 °F 88% 29.95 in 5.0 mi NE 4.6 mph - N/A   Overcast
7:14 PM 59.2 °F 55.6 °F 88% 29.95 in 10.0 mi East 4.6 mph - N/A   Overcast
7:34 PM 59.4 °F 55.6 °F 87% 29.95 in 7.0 mi ENE 3.5 mph - N/A   Overcast
7:54 PM 59.4 °F 55.4 °F 87% 29.96 in 10.0 mi ENE 3.5 mph - N/A   Overcast
8:14 PM 59.4 °F 55.4 °F 87% 29.96 in 10.0 mi NE 3.5 mph - N/A   Overcast
8:34 PM 59.4 °F 54.7 °F 84% 29.97 in 10.0 mi ENE 3.5 mph - N/A   Overcast
8:54 PM 59.4 °F 54.5 °F 84% 29.97 in 10.0 mi NNE 5.8 mph - N/A   Overcast
9:14 PM 59.2 °F 54.7 °F 85% 29.97 in 10.0 mi NNE 3.5 mph - N/A   Overcast
9:34 PM 59.2 °F 54.5 °F 84% 29.97 in 10.0 mi NNE 3.5 mph - N/A   Overcast
9:54 PM 59.0 °F 54.5 °F 85% 29.98 in 10.0 mi NNE 3.5 mph - N/A   Overcast
10:14 PM 59.0 °F 54.3 °F 84% 29.98 in 10.0 mi NNE 3.5 mph - N/A   Overcast
10:34 PM 59.0 °F 54.5 °F 85% 29.98 in 10.0 mi North 4.6 mph - N/A   Overcast
10:54 PM 59.0 °F 54.0 °F 83% 29.98 in 10.0 mi North 4.6 mph - N/A   Overcast
11:14 PM 59.0 °F 53.2 °F 81% 29.97 in 10.0 mi North 4.6 mph - N/A   Overcast
11:34 PM 58.6 °F 53.6 °F 83% 29.97 in 10.0 mi North 3.5 mph - N/A   Overcast
11:54 PM 58.3 °F 53.6 °F 84% 29.97 in 10.0 mi North 4.6 mph - N/A   Overcast